TimePDT,TemperatureF,Dew PointF,Humidity,Sea Level PressureIn,VisibilityMPH,Wind Direction,Wind SpeedMPH,Gust SpeedMPH,PrecipitationIn,Events,Conditions,WindDirDegrees,DateUTC
12:56 AM,55.0,52.0,89,29.90,7.0,Calm,Calm,-,N/A,,Scattered Clouds,0,2013-08-21 07:56:00
1:04 AM,55.4,51.8,88,29.89,7.0,Calm,Calm,-,N/A,,Mostly Cloudy,0,2013-08-21 08:04:00
1:14 AM,53.6,51.8,94,29.89,6.0,NE,3.5,-,N/A,,Scattered Clouds,50,2013-08-21 08:14:00
1:56 AM,54.0,51.1,90,29.90,6.0,Calm,Calm,-,N/A,,Partly Cloudy,0,2013-08-21 08:56:00
2:56 AM,54.0,51.1,90,29.89,6.0,Calm,Calm,-,N/A,,Scattered Clouds,0,2013-08-21 09:56:00
3:56 AM,53.1,51.1,93,29.91,7.0,Calm,Calm,-,N/A,,Clear,0,2013-08-21 10:56:00
4:56 AM,53.1,51.1,93,29.91,8.0,Calm,Calm,-,N/A,,Overcast,0,2013-08-21 11:56:00
5:56 AM,54.0,52.0,93,29.91,8.0,Calm,Calm,-,N/A,,Overcast,0,2013-08-21 12:56:00
6:56 AM,51.1,50.0,96,29.93,7.0,Calm,Calm,-,N/A,,Overcast,0,2013-08-21 13:56:00
7:56 AM,55.9,53.1,90,29.94,8.0,Calm,Calm,-,N/A,,Clear,0,2013-08-21 14:56:00
8:52 AM,55.4,53.6,94,29.94,7.0,South,6.9,-,N/A,,Mostly Cloudy,170,2013-08-21 15:52:00
8:56 AM,55.9,54.0,93,29.95,8.0,South,6.9,-,N/A,,Mostly Cloudy,170,2013-08-21 15:56:00
9:04 AM,55.4,53.6,94,29.95,10.0,South,6.9,-,N/A,,Mostly Cloudy,170,2013-08-21 16:04:00
9:18 AM,55.4,53.6,94,29.95,10.0,South,8.1,-,N/A,,Overcast,180,2013-08-21 16:18:00
9:34 AM,55.4,53.6,94,29.95,10.0,South,8.1,-,N/A,,Overcast,170,2013-08-21 16:34:00
9:46 AM,55.4,53.6,94,29.95,1.8,South,9.2,-,N/A,,Overcast,170,2013-08-21 16:46:00
9:51 AM,55.4,53.6,94,29.95,0.8,South,9.2,-,N/A,,Overcast,180,2013-08-21 16:51:00
9:56 AM,55.0,53.1,93,29.95,0.5,South,9.2,-,N/A,Fog,Fog,180,2013-08-21 16:56:00
10:45 AM,55.4,53.6,94,29.96,1.2,South,11.5,-,N/A,,Overcast,180,2013-08-21 17:45:00
10:56 AM,55.9,53.1,90,29.97,1.2,South,9.2,-,N/A,,Overcast,170,2013-08-21 17:56:00
11:03 AM,57.2,53.6,88,29.96,2.0,South,10.4,-,N/A,,Overcast,170,2013-08-21 18:03:00
11:12 AM,57.2,53.6,88,29.96,5.0,South,9.2,-,N/A,,Overcast,180,2013-08-21 18:12:00
11:19 AM,55.4,53.6,94,29.96,1.8,South,9.2,-,N/A,,Overcast,190,2013-08-21 18:19:00
11:27 AM,55.4,53.6,94,29.97,1.0,South,6.9,-,N/A,,Overcast,180,2013-08-21 18:27:00
11:47 AM,55.4,53.6,94,29.97,1.8,South,5.8,-,N/A,,Overcast,180,2013-08-21 18:47:00
11:50 AM,57.2,53.6,88,29.97,3.0,SSW,5.8,-,N/A,,Overcast,200,2013-08-21 18:50:00
11:56 AM,57.0,53.1,87,29.97,9.0,South,6.9,-,N/A,,Overcast,170,2013-08-21 18:56:00
12:32 PM,57.2,53.6,88,29.96,10.0,South,6.9,-,N/A,,Overcast,180,2013-08-21 19:32:00
12:56 PM,57.9,54.0,87,29.96,10.0,South,6.9,-,N/A,,Overcast,190,2013-08-21 19:56:00
1:56 PM,59.0,54.0,83,29.96,9.0,South,9.2,-,N/A,,Overcast,170,2013-08-21 20:56:00
2:05 PM,60.8,53.6,77,29.96,9.0,South,9.2,-,N/A,,Overcast,180,2013-08-21 21:05:00
2:56 PM,59.0,54.0,83,29.96,10.0,South,10.4,-,N/A,,Overcast,180,2013-08-21 21:56:00
3:14 PM,60.8,55.4,82,29.96,10.0,South,11.5,-,N/A,,Overcast,190,2013-08-21 22:14:00
3:56 PM,57.9,55.0,90,29.96,2.0,South,9.2,-,N/A,,Overcast,170,2013-08-21 22:56:00
4:05 PM,57.2,55.4,94,29.95,5.0,South,10.4,-,N/A,,Overcast,170,2013-08-21 23:05:00
4:33 PM,57.2,55.4,94,29.94,2.5,South,9.2,-,N/A,,Overcast,170,2013-08-21 23:33:00
4:41 PM,57.2,55.4,94,29.95,4.0,SSE,8.1,-,N/A,,Overcast,160,2013-08-21 23:41:00
4:56 PM,57.9,55.0,90,29.94,8.0,South,9.2,-,N/A,,Overcast,170,2013-08-21 23:56:00
5:56 PM,57.0,55.0,93,29.94,10.0,South,8.1,-,N/A,,Overcast,190,2013-08-22 00:56:00
6:19 PM,57.2,55.4,94,29.94,9.0,South,8.1,-,N/A,,Overcast,190,2013-08-22 01:19:00
6:56 PM,55.9,55.0,97,29.94,7.0,SSW,4.6,-,N/A,,Overcast,200,2013-08-22 01:56:00
7:13 PM,55.4,55.4,100,29.93,2.0,SW,3.5,-,N/A,,Overcast,220,2013-08-22 02:13:00
7:36 PM,55.4,55.4,100,29.93,1.2,SW,3.5,-,N/A,,Overcast,220,2013-08-22 02:36:00
7:46 PM,55.4,55.4,100,29.94,0.8,Calm,Calm,-,N/A,,Overcast,0,2013-08-22 02:46:00
7:56 PM,55.0,55.0,100,29.94,0.5,South,4.6,-,N/A,Fog,Fog,170,2013-08-22 02:56:00
8:05 PM,55.4,53.6,94,29.93,1.8,SSE,5.8,-,N/A,,Overcast,160,2013-08-22 03:05:00
8:07 PM,55.4,53.6,94,29.93,4.0,SSE,4.6,-,N/A,,Overcast,160,2013-08-22 03:07:00
8:22 PM,55.4,53.6,94,29.93,10.0,South,6.9,-,N/A,,Overcast,190,2013-08-22 03:22:00
8:47 PM,55.4,53.6,94,29.94,9.0,South,8.1,-,N/A,,Overcast,170,2013-08-22 03:47:00
8:56 PM,55.0,54.0,96,29.95,8.0,SSE,6.9,-,N/A,,Overcast,160,2013-08-22 03:56:00
9:56 PM,55.0,54.0,96,29.96,5.0,SSE,5.8,-,N/A,,Overcast,160,2013-08-22 04:56:00
10:08 PM,55.4,55.4,100,29.96,2.0,South,5.8,-,N/A,,Overcast,170,2013-08-22 05:08:00
10:15 PM,55.4,55.4,100,29.97,1.8,South,5.8,-,N/A,,Overcast,170,2013-08-22 05:15:00
10:33 PM,55.4,55.4,100,29.96,1.0,South,4.6,-,N/A,,Mist,180,2013-08-22 05:33:00
10:40 PM,55.4,55.4,100,29.96,0.8,South,3.5,-,N/A,,Mist,180,2013-08-22 05:40:00
10:56 PM,55.0,55.0,100,29.97,0.8,South,5.8,-,N/A,,Mist,180,2013-08-22 05:56:00
11:56 PM,55.0,55.0,100,29.98,0.8,SSE,3.5,-,N/A,,Mist,160,2013-08-22 06:56:00